TimeCST,TemperatureF,Dew PointF,Humidity,Sea Level PressureIn,VisibilityMPH,Wind Direction,Wind SpeedMPH,Gust SpeedMPH,PrecipitationIn,Events,Conditions,WindDirDegrees,DateUTC
12:15 AM,24.8,15.8,69,30.32,10.0,Calm,Calm,-,N/A,,Scattered Clouds,0,2013-02-02 06:15:00
12:35 AM,24.8,15.8,69,30.31,10.0,SSE,3.5,-,N/A,,Scattered Clouds,150,2013-02-02 06:35:00
12:55 AM,24.8,15.8,69,30.30,10.0,South,5.8,-,N/A,,Scattered Clouds,170,2013-02-02 06:55:00
1:15 AM,24.8,14.0,64,30.29,10.0,South,4.6,-,N/A,,Mostly Cloudy,170,2013-02-02 07:15:00
1:35 AM,24.8,14.0,64,30.29,10.0,South,5.8,-,N/A,,Mostly Cloudy,170,2013-02-02 07:35:00
1:55 AM,24.8,14.0,64,30.29,10.0,South,4.6,-,N/A,,Mostly Cloudy,180,2013-02-02 07:55:00
2:15 AM,26.6,14.0,59,30.29,10.0,South,3.5,-,N/A,,Mostly Cloudy,170,2013-02-02 08:15:00
2:35 AM,26.6,14.0,59,30.29,10.0,South,3.5,-,N/A,,Overcast,170,2013-02-02 08:35:00
2:55 AM,26.6,15.8,64,30.27,10.0,SSE,5.8,-,N/A,,Overcast,150,2013-02-02 08:55:00
3:15 AM,26.6,15.8,64,30.26,10.0,South,4.6,-,N/A,,Overcast,170,2013-02-02 09:15:00
3:35 AM,26.6,15.8,64,30.25,10.0,SSE,4.6,-,N/A,,Overcast,160,2013-02-02 09:35:00
3:55 AM,26.6,15.8,64,30.25,10.0,SSE,4.6,-,N/A,,Overcast,160,2013-02-02 09:55:00
4:15 AM,26.6,15.8,64,30.25,10.0,South,4.6,-,N/A,,Overcast,170,2013-02-02 10:15:00
4:35 AM,28.4,15.8,59,30.25,10.0,South,5.8,-,N/A,,Mostly Cloudy,190,2013-02-02 10:35:00
4:55 AM,28.4,15.8,59,30.23,10.0,South,6.9,-,N/A,,Overcast,180,2013-02-02 10:55:00
5:15 AM,28.4,15.8,59,30.24,10.0,South,5.8,-,N/A,,Overcast,190,2013-02-02 11:15:00
5:35 AM,28.4,15.8,59,30.23,10.0,South,6.9,-,N/A,,Overcast,180,2013-02-02 11:35:00
5:55 AM,28.4,15.8,59,30.23,10.0,South,5.8,-,N/A,,Overcast,190,2013-02-02 11:55:00
6:15 AM,28.4,15.8,59,30.21,10.0,South,9.2,-,N/A,,Overcast,170,2013-02-02 12:15:00
6:35 AM,28.4,15.8,59,30.20,10.0,South,9.2,-,N/A,,Overcast,180,2013-02-02 12:35:00
6:55 AM,28.4,15.8,59,30.19,10.0,South,8.1,-,N/A,,Partly Cloudy,180,2013-02-02 12:55:00
7:15 AM,28.4,17.6,64,30.19,10.0,South,8.1,-,N/A,,Clear,190,2013-02-02 13:15:00
7:35 AM,28.4,19.4,69,30.19,10.0,South,5.8,16.1,N/A,,Clear,190,2013-02-02 13:35:00
7:55 AM,30.2,23.0,75,30.19,10.0,SSW,8.1,-,N/A,,Clear,200,2013-02-02 13:55:00
8:15 AM,32.0,24.8,75,30.19,10.0,SSW,9.2,-,N/A,,Partly Cloudy,200,2013-02-02 14:15:00
8:35 AM,32.0,24.8,75,30.19,10.0,SSW,8.1,-,N/A,,Mostly Cloudy,210,2013-02-02 14:35:00
8:55 AM,32.0,24.8,75,30.18,10.0,SSW,8.1,-,N/A,,Mostly Cloudy,200,2013-02-02 14:55:00
9:15 AM,33.8,24.8,70,30.18,10.0,SSW,8.1,-,N/A,,Partly Cloudy,200,2013-02-02 15:15:00
9:35 AM,33.8,23.0,65,30.17,10.0,SSW,10.4,-,N/A,,Partly Cloudy,200,2013-02-02 15:35:00
9:55 AM,35.6,23.0,60,30.16,10.0,SSW,8.1,-,N/A,,Partly Cloudy,210,2013-02-02 15:55:00
10:15 AM,35.6,23.0,60,30.16,10.0,SW,9.2,-,N/A,,Partly Cloudy,220,2013-02-02 16:15:00
10:35 AM,37.4,23.0,56,30.17,10.0,WSW,13.8,17.3,N/A,,Partly Cloudy,240,2013-02-02 16:35:00
10:55 AM,39.2,23.0,52,30.16,10.0,WSW,16.1,21.9,N/A,,Clear,250,2013-02-02 16:55:00
11:15 AM,39.2,23.0,52,30.15,10.0,WSW,16.1,21.9,N/A,,Scattered Clouds,250,2013-02-02 17:15:00
11:35 AM,39.2,23.0,52,30.15,10.0,WSW,15.0,-,N/A,,Mostly Cloudy,250,2013-02-02 17:35:00
11:55 AM,39.2,23.0,52,30.15,10.0,West,18.4,24.2,N/A,,Scattered Clouds,260,2013-02-02 17:55:00
12:15 PM,37.4,23.0,56,30.14,10.0,West,15.0,19.6,N/A,,Scattered Clouds,260,2013-02-02 18:15:00
12:35 PM,37.4,24.8,60,30.13,4.0,West,15.0,19.6,N/A,,Mostly Cloudy,270,2013-02-02 18:35:00
12:55 PM,35.6,30.2,81,30.13,6.0,WSW,17.3,-,N/A,,Scattered Clouds,250,2013-02-02 18:55:00
1:15 PM,35.6,32.0,87,30.12,10.0,WSW,16.1,23.0,N/A,,Mostly Cloudy,250,2013-02-02 19:15:00
1:35 PM,35.6,32.0,87,30.10,10.0,WSW,13.8,-,N/A,,Overcast,250,2013-02-02 19:35:00
1:55 PM,35.6,32.0,87,30.10,10.0,West,13.8,20.7,N/A,,Overcast,260,2013-02-02 19:55:00
2:15 PM,35.6,32.0,87,30.09,10.0,West,15.0,18.4,N/A,,Overcast,270,2013-02-02 20:15:00
2:35 PM,37.4,32.0,81,30.10,10.0,West,12.7,-,N/A,,Overcast,270,2013-02-02 20:35:00
2:55 PM,37.4,32.0,81,30.10,10.0,West,16.1,20.7,N/A,,Overcast,260,2013-02-02 20:55:00
3:15 PM,39.2,32.0,75,30.10,10.0,West,12.7,18.4,N/A,,Mostly Cloudy,260,2013-02-02 21:15:00
3:35 PM,39.2,32.0,75,30.10,10.0,WSW,11.5,-,N/A,,Partly Cloudy,250,2013-02-02 21:35:00
3:55 PM,39.2,30.2,70,30.10,10.0,West,12.7,18.4,N/A,,Clear,280,2013-02-02 21:55:00
4:15 PM,39.2,28.4,65,30.10,10.0,West,9.2,-,N/A,,Clear,280,2013-02-02 22:15:00
4:35 PM,39.2,28.4,65,30.11,10.0,West,10.4,-,N/A,,Clear,280,2013-02-02 22:35:00
4:55 PM,39.2,28.4,65,30.11,10.0,West,8.1,-,N/A,,Clear,280,2013-02-02 22:55:00
5:35 PM,37.4,28.4,70,30.12,10.0,West,5.8,-,N/A,,Mostly Cloudy,270,2013-02-02 23:35:00
5:55 PM,37.4,28.4,70,30.13,10.0,West,4.6,-,N/A,,Overcast,270,2013-02-02 23:55:00
6:15 PM,37.4,28.4,70,30.14,10.0,WSW,4.6,-,N/A,,Overcast,250,2013-02-03 00:15:00
6:35 PM,37.4,28.4,70,30.14,10.0,West,6.9,-,N/A,,Overcast,260,2013-02-03 00:35:00
6:55 PM,37.4,28.4,70,30.14,10.0,West,6.9,-,N/A,,Mostly Cloudy,260,2013-02-03 00:55:00
7:15 PM,35.6,28.4,75,30.14,10.0,WSW,5.8,-,N/A,,Mostly Cloudy,250,2013-02-03 01:15:00
7:35 PM,35.6,28.4,75,30.14,10.0,WSW,6.9,-,N/A,,Overcast,240,2013-02-03 01:35:00
7:55 PM,37.4,28.4,70,30.14,10.0,WSW,6.9,-,N/A,,Overcast,240,2013-02-03 01:55:00
8:15 PM,35.6,28.4,75,30.14,10.0,West,8.1,-,N/A,,Overcast,260,2013-02-03 02:15:00
8:35 PM,37.4,28.4,70,30.14,10.0,WSW,10.4,-,N/A,,Overcast,250,2013-02-03 02:35:00
8:55 PM,37.4,28.4,70,30.14,10.0,WSW,11.5,-,N/A,,Mostly Cloudy,250,2013-02-03 02:55:00
9:15 PM,35.6,28.4,75,30.14,10.0,West,11.5,-,N/A,,Clear,260,2013-02-03 03:15:00
9:35 PM,35.6,28.4,75,30.14,10.0,West,8.1,-,N/A,,Mostly Cloudy,270,2013-02-03 03:35:00
9:55 PM,37.4,28.4,70,30.14,10.0,West,6.9,-,N/A,,Overcast,270,2013-02-03 03:55:00
10:15 PM,37.4,28.4,70,30.14,10.0,West,6.9,-,N/A,,Overcast,280,2013-02-03 04:15:00
10:35 PM,35.6,28.4,75,30.13,10.0,West,6.9,-,N/A,,Mostly Cloudy,260,2013-02-03 04:35:00
10:55 PM,35.6,28.4,75,30.13,10.0,West,6.9,-,N/A,,Mostly Cloudy,270,2013-02-03 04:55:00
11:15 PM,35.6,28.4,75,30.13,10.0,West,5.8,-,N/A,,Scattered Clouds,270,2013-02-03 05:15:00
11:35 PM,32.0,26.6,80,30.12,10.0,West,3.5,-,N/A,,Scattered Clouds,260,2013-02-03 05:35:00
11:55 PM,32.0,26.6,80,30.11,10.0,WSW,4.6,-,N/A,,Scattered Clouds,240,2013-02-03 05:55:00